RH
54 50 68 87 98 99 85 72 54 46 40 34 35 45 48 49 60 50 45 40 34 25 26 27 27 23 21 20 20 19 21 23 22 22 21 19 20 21 22 22 23 22 20 18 18
46 57 81 94 95 93 81 59 47 43 40 37 37 53 50 52 65 49 48 49 44 34 24 27 27 24 21 21 22 22 24 23 23 22 22 22 23 22 22 22 22 23 22 19 18
46 67 87 92 92 83 65 46 46 43 40 38 42 56 52 53 62 59 53 55 44 45 33 28 26 25 24 24 25 25 26 26 26 25 24 24 24 23 23 24 24 21 17 16 15
63 79 86 87 76 64 49 49 46 43 38 39 52 59 55 58 68 67 58 55 57 52 43 35 32 31 29 29 28 29 28 27 27 25 25 25 24 23 23 23 21 18 17 15 15
72 67 72 75 66 50 47 49 47 39 35 38 60 66 58 65 63 61 57 53 57 55 46 42 38 36 38 38 36 36 36 35 31 26 25 23 23 22 21 22 20 17 17 17 16
61 61 66 69 59 44 50 49 41 33 36 39 49 60 60 64 63 63 64 55 55 53 46 47 43 42 41 39 36 34 32 30 28 27 26 25 25 24 24 22 19 19 18 17 14
66 70 64 61 43 45 50 44 33 29 36 32 29 44 59 52 59 63 63 58 56 55 48 44 45 42 40 41 37 30 29 27 27 27 24 24 21 21 19 19 19 18 16 14 13
61 62 57 43 41 46 44 38 30 28 32 29 27 36 39 45 53 53 51 45 51 54 49 47 42 39 35 35 31 28 27 25 26 25 24 22 20 20 19 18 17 15 14 14 16
54 49 42 41 45 42 38 32 27 30 31 32 40 39 34 39 39 40 46 42 37 39 41 41 37 36 33 31 30 28 26 23 21 24 23 20 18 16 15 13 13 14 15 16 18
40 39 40 42 40 38 33 27 26 26 27 28 27 31 28 36 32 29 34 37 36 33 28 31 31 32 32 35 35 24 22 20 17 20 19 18 16 14 12 11 13 16 17 17 17
34 34 38 39 40 35 32 26 21 23 25 26 25 23 22 24 21 19 22 25 23 21 22 22 27 34 31 28 23 21 19 18 18 22 19 17 16 12 13 13 15 17 17 16 16
29 38 42 42 38 33 28 22 22 22 24 24 25 23 21 20 20 19 18 18 22 22 20 22 26 24 23 23 21 21 19 17 19 20 20 19 17 13 15 15 16 18 17 16 16
30 33 42 43 38 36 24 22 22 23 22 22 24 22 22 21 20 19 18 17 18 22 22 23 24 23 21 22 20 27 22 25 25 25 22 23 16 16 17 17 18 18 18 18 17
31 32 26 42 40 34 27 23 24 24 28 23 23 22 21 21 21 20 19 18 19 20 22 25 24 23 23 25 23 18 29 29 29 25 22 24 21 13 17 18 18 19 19 18 16
30 30 24 23 29 31 29 27 23 23 35 23 23 22 22 21 21 19 20 18 21 22 20 25 24 24 27 29 26 27 31 31 33 34 34 27 32 15 17 19 19 20 19 18 16
31 29 30 29 23 21 24 23 26 34 28 26 27 26 24 23 22 20 20 19 21 21 25 28 27 28 30 31 29 30 27 28 32 34 31 33 33 23 17 18 18 19 19 19 17
14 15 19 24 27 27 25 25 33 35 22 26 26 25 24 25 22 24 22 23 24 22 26 26 30 31 29 25 26 22 24 29 29 34 28 40 38 20 17 17 19 20 20 19 19
14 14 13 12 12 12 13 19 26 24 22 22 26 28 28 28 26 26 26 30 26 25 28 24 21 27 28 27 24 27 23 30 16 27 27 35 32 20 18 18 21 21 21 20 17
16 11 11 12 13 13 12 23 16 15 16 17 16 22 18 20 19 19 21 23 19 18 12 17 15 27 29 28 25 30 27 22 34 41 37 31 21 15 18 17 21 22 21 19 21
16 13 17 17 13 11 14 19 21 20 19 18 15 15 18 19 17 14 17 16 17 17 17 17 17 25 32 30 30 26 26 28 33 20 25 27 22 29 22 23 26 27 23 23 27
19 17 16 12 11 14 27 24 22 22 21 19 17 18 18 16 16 17 16 17 19 19 19 18 20 22 34 38 38 48 50 49 46 45 45 41 42 32 33 38 38 37 36 38 37
23 22 20 21 15 17 17 17 21 23 24 23 21 17 16 18 18 23 19 18 19 21 24 32 36 39 32 36 37 40 40 38 47 43 53 50 46 35 37 40 38 38 39 40 39
28 28 25 20 24 21 21 19 17 17 19 21 23 25 29 32 36 41 39 36 34 30 33 33 35 43 39 39 40 44 44 42 44 46 56 52 48 35 38 36 37 38 40 40 40
34 36 32 30 28 25 23 22 21 21 21 21 22 21 21 24 26 25 27 31 30 30 32 30 31 33 36 33 35 38 43 43 43 53 46 44 36 34 35 38 39 39 39 40 41
29 34 34 38 34 33 33 27 24 24 26 26 27 25 22 25 25 25 25 28 27 26 25 26 29 29 28 29 29 29 30 41 42 38 41 34 37 28 33 37 36 37 39 40 39
22 26 30 32 32 34 36 35 33 27 28 29 29 29 29 28 27 29 28 29 29 32 31 32 33 36 36 31 35 38 35 33 36 35 38 36 35 31 32 35 38 39 41 41 41
19 21 25 27 30 30 32 34 37 37 30 28 29 31 32 30 30 31 31 30 30 33 35 38 41 44 43 41 43 39 34 36 38 38 39 46 33 34 36 38 41 43 43 43 43